Regional Weather Roundup
Issued by NWS

Home | Current Version | Previous Version | Text Only | Print | Product List | Glossary Off
Versions: 1 2 3 4 5 6 7 8 9 10 11 12 13 14 15 16 17 18 19 20 21 22 23 24 25 26 27 28 29 30 31 32 33 34 35 36 37 38 39 40 41 42 43 44 45 46 47 48 49 50

000
ASUS43 KLOT 270512
RWRIL

ILLINOIS REGIONAL WEATHER ROUNDUP
NATIONAL WEATHER SERVICE CHICAGO/ROMEOVILLE IL
1200 AM CDT WED MAY 27 2015

NOTE: "FAIR" INDICATES FEW OR NO CLOUDS BELOW 12,000 FEET WITH NO
SIGNIFICANT WEATHER AND/OR OBSTRUCTIONS TO VISIBILITY.

* THESE STATIONS ARE NOT UNDER NWS QUALITY CONTROL. THEY ALSO MAY NOT
  REPORT WEATHER SUCH AS PRECIPITATION OR FOG.

ILZ001-002-007-009-015-016-024-270600-
NORTHWEST ILLINOIS

CITY           SKY/WX    TMP DP  RH WIND       PRES   REMARKS
MOLINE         PTCLDY    67  61  81 SW10      29.85R
STERLING*      MOCLDY    66  61  82 SW9       29.85R
SAVANNA*       PTCLDY    66  62  85 SW8       29.83S
$$

ILZ003-004-008-010-011-017-018-270600-
NORTH CENTRAL ILLINOIS

CITY           SKY/WX    TMP DP  RH WIND       PRES   REMARKS
ROCKFORD       CLOUDY    65  61  87 S9        29.84S
FREEPORT*      MOCLDY    63  61  94 SW7       29.84F
ROCHELLE*      LGT RAIN  63  62  95 SW10      29.85S
DE KALB*       RAIN      63  61  94 SW16G23   29.87R
PERU*          CLOUDY    67  63  87 SW14      29.87R
$$

ILZ005-006-012>014-019>023-270600-
NORTHEAST ILLINOIS

CITY           SKY/WX    TMP DP  RH WIND       PRES   REMARKS
CHICAGO-OHARE  MOCLDY    68  60  75 S12       29.83F
CHICAGO-MIDWAY CLOUDY    71  63  75 S13G24    29.85S
AURORA         MOCLDY    68  61  78 S15       29.85S
LANSING*       MOCLDY    67  59  74 S14G20    29.88S
JOLIET*        CLOUDY    71  63  76 SW12G24   29.86F
WAUKEGAN       CLOUDY    65  60  84 SW6       29.82S
DUPAGE AIRPORT PTCLDY    67  61  81 S13       29.84S
KANKAKEE*      CLEAR     68  62  81 S15G24    29.90S
WHEELING       MOCLDY    68  60  75 S10       29.84F
MORRIS*        DRIZZLE   68  62  82 S18       29.85S
ROMEOVILLE*    CLOUDY    68  61  77 SW16G23   29.86S
NORTHERLY ISL    N/A     70  60  70 S15         N/A
$$

LMZ740>746-270600-
SOUTHERN LAKE MICHIGAN

STATION/POSITION SKY/WX   TEMP    WIND        PRES    VSBY  WAVE
                          AIR SEA DIR/SP/G                  HT/PER
                          (F)     (DEG/KT/KT) (MB)    (MI)  (FT/S)
SOUTHERN BUOY              47 38  190/ 14/ 16 1010.3F         2/ 4
HARRISON CRIB              69     190/ 18/ 20   N/A
BURNHAM HARBOR             70     200/ 12/ 17   N/A
BURNS HARBOR               68     200/ 15/ 20 1012.5S
MICHIGAN CITY              68     180/ 14/ 17   N/A
MICHIGAN CITY 6N           63 52  210/ 14/ 17   N/A           2/ 3
ST. JOSEPH                 62 55  230/ 12/ 14   N/A           2/ 4
$$

ILZ025>027-034>036-040-047-049-050-058-095>099-270600-
WEST-CENTRAL ILLINOIS

CITY           SKY/WX    TMP DP  RH WIND       PRES   REMARKS
QUINCY         MOCLDY    69  62  78 SW8       29.92S
GALESBURG*     MOCLDY    64  60  89 SW8       29.89S
MACOMB*        CLOUDY    68  63  83 SW9       29.92S
JACKSONVILLE*  MOCLDY    69  63  80 SW7       29.93S
PITTSFIELD*    MOCLDY    71  61  71 SW9       29.95S
$$

ILZ028>032-037-038-041>044-048-051>054-059>061-270600-
CENTRAL ILLINOIS

CITY           SKY/WX    TMP DP  RH WIND       PRES   REMARKS
PONTIAC        MOCLDY    70  64  82 S18       29.90R
BLOOMINGTON    MOCLDY    70  63  78 SW20      29.93S
DECATUR        PTCLDY    69  60  73 S14       29.96R
PEORIA         PTCLDY    71  61  70 SW13      29.89R
LACON*         CLOUDY    65  63  90 SW7       29.88S
LINCOLN*       MOCLDY    70  63  78 S6        29.91S
SPRINGFIELD    MOCLDY    71  61  70 S14       29.94R
TAYLORVILLE    CLEAR     66  61  82 S12       29.97S
$$

ILZ033-039-045-046-055>057-062-063-270600-
EAST-CENTRAL ILLINOIS

CITY           SKY/WX    TMP DP  RH WIND       PRES   REMARKS
CHAMPAIGN      CLEAR     68  60  75 S17       29.96R
DANVILLE*      CLEAR     67  59  76 SW13      29.94R
RANTOUL*       MOCLDY    70  62  74 S13G20    29.95R
MATTOON        CLEAR     67  60  78 S10       29.98S
PARIS*         CLEAR     68  61  78 S14       29.99S
$$

ILZ079-100>102-270600-
SOUTHWEST ILLINOIS

CITY           SKY/WX    TMP DP  RH WIND       PRES   REMARKS
ALTON          CLEAR     69  66  90 S8        29.98S
BELLEVILLE     CLEAR     69  63  83 S9        29.98F
CAHOKIA*       CLEAR     70  61  73 S3        29.98F
SPARTA*        CLEAR     68  62  81 S7        30.02F
$$

ILZ064>066-069>071-074>076-080>082-084>086-088>090-092>094-270600-
SOUTH-CENTRAL ILLINOIS

CITY           SKY/WX    TMP DP  RH WIND       PRES   REMARKS
CARBONDALE     CLEAR     68  63  84 S8        30.03F
CAIRO*         CLEAR     68  63  84 S5        30.05F
EFFINGHAM*     CLEAR     68  59  73 S7        30.02R
MARION         CLEAR     68  64  88 S9        30.04F
MT. VERNON     CLEAR     68  61  77 S8        30.03S
CENTRALIA*     CLEAR     67  61  83 S10       30.01F
SALEM*         CLEAR     70  63  78 S10       30.01F
METROPOLIS*    CLEAR     66  63  87 CALM      30.06S
$$

ILZ067-068-072-073-078-083-087-091-270600-
SOUTHEAST ILLINOIS

CITY           SKY/WX    TMP DP  RH WIND       PRES   REMARKS
LAWRENCEVILLE  CLEAR     68  61  78 SW12      30.03S
FLORA*         CLEAR     68  62  82 S10       30.03R
FAIRFIELD*     CLEAR     68  63  84 S7        30.03R
HARRISBURG*    CLEAR     67  63  89 SW3       30.06S
ROBINSON*      CLEAR     69  61  76 SW9       30.02F
CARMI*         CLEAR     66  59  77 S7        30.04S
$$

ABBREVIATIONS USED IN REMARKS
   TC - TEMPERATURE IN CELSIUS
  WCI - WIND CHILL INDEX
   HX - HEAT INDEX
  VSB - VISIBILITY
$$



USA.gov is the U.S. government's official web portal to all federal, state and local government web resources and services.